CentOS Mirror
 CentOS on the Web: CentOS.org | Mailing Lists | Mirror List | IRC | Forums | Bugs | Donate
[ICO]NameLast modifiedSizeDescription

[PARENTDIR]Parent Directory  -  
[   ]rh-perl524-2.3-2.el7.x86_64.rpm2016-12-19 22:53 5.3K 
[   ]rh-perl524-build-2.3-2.el7.x86_64.rpm2016-12-19 22:53 6.3K 
[   ]rh-perl524-mod_perl-2.0.9-9.el7.x86_64.rpm2016-12-18 14:21 3.0M 
[   ]rh-perl524-mod_perl-2.0.9-10.el7.x86_64.rpm2018-11-05 22:07 3.0M 
[   ]rh-perl524-mod_perl-devel-2.0.9-9.el7.x86_64.rpm2016-12-18 14:21 287K 
[   ]rh-perl524-mod_perl-devel-2.0.9-10.el7.x86_64.rpm2018-11-05 22:07 287K 
[   ]rh-perl524-perl-5.24.0-379.el7.x86_64.rpm2016-12-18 14:21 6.0M 
[   ]rh-perl524-perl-5.24.0-380.el7.x86_64.rpm2018-05-14 11:02 6.0M 
[   ]rh-perl524-perl-5.24.0-381.el7.x86_64.rpm2019-01-29 09:03 6.1M 
[   ]rh-perl524-perl-Algorithm-Diff-1.1903-6.el7.noarch.rpm2016-12-18 14:21 47K 
[   ]rh-perl524-perl-App-cpanminus-1.7042-2.el7.noarch.rpm2016-12-18 14:21 92K 
[   ]rh-perl524-perl-Archive-Tar-2.10-1.el7.noarch.rpm2017-06-07 00:24 73K 
[   ]rh-perl524-perl-Archive-Zip-1.59-1.el7.noarch.rpm2016-12-18 14:21 102K 
[   ]rh-perl524-perl-Attribute-Handlers-0.99-379.el7.noarch.rpm2016-12-18 14:21 73K 
[   ]rh-perl524-perl-Attribute-Handlers-0.99-380.el7.noarch.rpm2018-05-14 11:02 74K 
[   ]rh-perl524-perl-Attribute-Handlers-0.99-381.el7.noarch.rpm2019-01-29 09:03 74K 
[   ]rh-perl524-perl-B-Debug-1.23-379.el7.noarch.rpm2016-12-18 14:21 61K 
[   ]rh-perl524-perl-BSD-Resource-1.291.000-3.el7.x86_64.rpm2016-12-18 14:21 40K 
[   ]rh-perl524-perl-Business-ISBN-2.011-2.el7.noarch.rpm2016-12-18 14:21 31K 
[   ]rh-perl524-perl-Business-ISBN-Data-20140910.003-4.el7.noarch.rpm2016-12-18 14:21 29K 
[   ]rh-perl524-perl-CPAN-2.11-379.el7.noarch.rpm2016-12-18 14:21 330K 
[   ]rh-perl524-perl-CPAN-DistnameInfo-0.12-8.el7.noarch.rpm2016-12-18 14:21 13K 
[   ]rh-perl524-perl-CPAN-Meta-2.150005-379.el7.noarch.rpm2016-12-18 14:21 168K 
[   ]rh-perl524-perl-CPAN-Meta-Check-0.012-4.el7.noarch.rpm2016-12-18 14:21 17K 
[   ]rh-perl524-perl-CPAN-Meta-Requirements-2.140-5.el7.noarch.rpm2016-12-18 14:21 31K 
[   ]rh-perl524-perl-CPAN-Meta-YAML-0.018-379.el7.noarch.rpm2016-12-18 14:21 66K 
[   ]rh-perl524-perl-Capture-Tiny-0.42-2.el7.noarch.rpm2016-12-18 14:21 33K 
[   ]rh-perl524-perl-Carp-1.40-379.el7.noarch.rpm2016-12-18 14:21 72K 
[   ]rh-perl524-perl-Class-Singleton-1.5-6.el7.noarch.rpm2016-12-18 14:21 18K 
[   ]rh-perl524-perl-Compress-Bzip2-2.24-5.el7.x86_64.rpm2016-12-18 14:21 66K 
[   ]rh-perl524-perl-Compress-Raw-Bzip2-2.069-379.el7.x86_64.rpm2016-12-18 14:21 75K 
[   ]rh-perl524-perl-Compress-Raw-Zlib-2.069-379.el7.x86_64.rpm2016-12-18 14:21 96K 
[   ]rh-perl524-perl-Config-Perl-V-0.26-3.el7.noarch.rpm2016-12-18 14:21 16K 
[   ]rh-perl524-perl-DBD-MySQL-4.035-4.el7.x86_64.rpm2016-12-18 14:22 142K 
[   ]rh-perl524-perl-DBD-Pg-3.5.3-4.el7.x86_64.rpm2016-12-18 14:22 204K 
[   ]rh-perl524-perl-DBD-SQLite-1.50-5.el7.x86_64.rpm2016-12-18 14:22 176K 
[   ]rh-perl524-perl-DBI-1.636-4.el7.x86_64.rpm2016-12-18 14:22 726K 
[   ]rh-perl524-perl-DB_File-1.838-3.el7.x86_64.rpm2016-12-18 14:22 76K 
[   ]rh-perl524-perl-Data-Dumper-2.161-3.el7.x86_64.rpm2016-12-18 14:21 51K 
[   ]rh-perl524-perl-Data-Flow-1.02-15.el7.noarch.rpm2016-12-18 14:21 16K 
[   ]rh-perl524-perl-Data-OptList-0.110-3.el7.noarch.rpm2016-12-18 14:22 26K 
[   ]rh-perl524-perl-Data-Section-0.200006-8.el7.noarch.rpm2016-12-18 14:22 24K 
[   ]rh-perl524-perl-Date-ISO8601-0.004-15.el7.noarch.rpm2016-12-18 14:22 17K 
[   ]rh-perl524-perl-DateTime-1.34-2.el7.x86_64.rpm2016-12-18 14:22 130K 
[   ]rh-perl524-perl-DateTime-Locale-1.05-3.el7.noarch.rpm2016-12-18 14:22 2.1M 
[   ]rh-perl524-perl-DateTime-TimeZone-2.01-3.el7.noarch.rpm2017-06-07 00:25 415K 
[   ]rh-perl524-perl-DateTime-TimeZone-SystemV-0.009-8.el7.noarch.rpm2016-12-18 14:22 21K 
[   ]rh-perl524-perl-DateTime-TimeZone-Tzfile-0.010-6.el7.noarch.rpm2016-12-18 14:22 18K 
[   ]rh-perl524-perl-Devel-PPPort-3.35-2.el7.x86_64.rpm2016-12-18 14:22 113K 
[   ]rh-perl524-perl-Devel-Peek-1.23-379.el7.x86_64.rpm2016-12-18 14:22 77K 
[   ]rh-perl524-perl-Devel-Peek-1.23-380.el7.x86_64.rpm2018-05-14 11:02 77K 
[   ]rh-perl524-perl-Devel-Peek-1.23-381.el7.x86_64.rpm2019-01-29 09:04 78K 
[   ]rh-perl524-perl-Devel-SelfStubber-1.05-379.el7.noarch.rpm2016-12-18 14:22 60K 
[   ]rh-perl524-perl-Devel-SelfStubber-1.05-380.el7.noarch.rpm2018-05-14 11:02 60K 
[   ]rh-perl524-perl-Devel-SelfStubber-1.05-381.el7.noarch.rpm2019-01-29 09:04 61K 
[   ]rh-perl524-perl-Devel-Size-0.80-6.el7.x86_64.rpm2016-12-18 14:22 41K 
[   ]rh-perl524-perl-Devel-StackTrace-2.01-3.el7.noarch.rpm2016-12-18 14:22 29K 
[   ]rh-perl524-perl-Digest-1.17-379.el7.noarch.rpm2016-12-18 14:22 71K 
[   ]rh-perl524-perl-Digest-MD5-2.55-3.el7.x86_64.rpm2016-12-18 14:22 31K 
[   ]rh-perl524-perl-Digest-SHA-5.96-1.el7.x86_64.rpm2016-12-18 14:22 59K 
[   ]rh-perl524-perl-Dist-CheckConflicts-0.11-8.el7.noarch.rpm2016-12-18 14:22 22K 
[   ]rh-perl524-perl-Encode-2.86-1.el7.x86_64.rpm2016-12-18 14:22 1.5M 
[   ]rh-perl524-perl-Encode-Locale-1.05-6.el7.noarch.rpm2016-12-18 14:22 16K 
[   ]rh-perl524-perl-Encode-devel-2.80-379.el7.noarch.rpm2016-12-18 14:22 80K 
[   ]rh-perl524-perl-Encode-devel-2.86-1.el7.x86_64.rpm2016-12-18 14:22 32K 
[   ]rh-perl524-perl-Env-1.04-379.el7.noarch.rpm2016-12-18 14:22 60K 
[   ]rh-perl524-perl-Errno-1.25-379.el7.x86_64.rpm2016-12-18 14:22 60K 
[   ]rh-perl524-perl-Errno-1.25-380.el7.x86_64.rpm2018-05-14 11:02 61K 
[   ]rh-perl524-perl-Errno-1.25-381.el7.x86_64.rpm2019-01-29 09:04 61K 
[   ]rh-perl524-perl-Exporter-5.72-379.el7.noarch.rpm2016-12-18 14:22 75K 
[   ]rh-perl524-perl-ExtUtils-CBuilder-0.280225-379.el7.noarch.rpm2016-12-18 14:22 82K 
[   ]rh-perl524-perl-ExtUtils-Command-7.22-2.el7.noarch.rpm2016-12-18 14:22 13K 
[   ]rh-perl524-perl-ExtUtils-Embed-1.33-379.el7.noarch.rpm2016-12-18 14:22 64K 
[   ]rh-perl524-perl-ExtUtils-Embed-1.33-380.el7.noarch.rpm2018-05-14 11:02 64K 
[   ]rh-perl524-perl-ExtUtils-Embed-1.33-381.el7.noarch.rpm2019-01-29 09:04 64K 
[   ]rh-perl524-perl-ExtUtils-Install-2.04-379.el7.noarch.rpm2016-12-18 14:22 88K 
[   ]rh-perl524-perl-ExtUtils-MM-Utils-7.22-2.el7.noarch.rpm2016-12-18 14:22 11K 
[   ]rh-perl524-perl-ExtUtils-MakeMaker-7.22-2.el7.noarch.rpm2016-12-18 14:22 293K 
[   ]rh-perl524-perl-ExtUtils-MakeMaker-CPANfile-0.07-4.el7.noarch.rpm2016-12-18 14:22 17K 
[   ]rh-perl524-perl-ExtUtils-Manifest-1.70-379.el7.noarch.rpm2016-12-18 14:22 68K 
[   ]rh-perl524-perl-ExtUtils-Miniperl-1.05-379.el7.noarch.rpm2016-12-18 14:22 61K 
[   ]rh-perl524-perl-ExtUtils-Miniperl-1.05-380.el7.noarch.rpm2018-05-14 11:02 61K 
[   ]rh-perl524-perl-ExtUtils-Miniperl-1.05-381.el7.noarch.rpm2019-01-29 09:04 61K 
[   ]rh-perl524-perl-ExtUtils-ParseXS-3.31-379.el7.noarch.rpm2016-12-18 14:22 126K 
[   ]rh-perl524-perl-Fedora-VSP-0.001-6.el7.noarch.rpm2016-12-18 14:22 19K 
[   ]rh-perl524-perl-File-Fetch-0.52-1.el7.noarch.rpm2016-12-18 14:22 28K 
[   ]rh-perl524-perl-File-HomeDir-1.00-13.el7.noarch.rpm2016-12-18 14:22 57K 
[   ]rh-perl524-perl-File-Path-2.12-379.el7.noarch.rpm2016-12-18 14:22 76K 
[   ]rh-perl524-perl-File-Temp-0.23.04-379.el7.noarch.rpm2016-12-18 14:22 92K 
[   ]rh-perl524-perl-File-Which-1.21-3.el7.noarch.rpm2016-12-18 14:22 18K 
[   ]rh-perl524-perl-File-pushd-1.009-7.el7.noarch.rpm2016-12-18 14:22 21K 
[   ]rh-perl524-perl-Filter-1.55-379.el7.x86_64.rpm2016-12-18 14:22 91K 
[   ]rh-perl524-perl-Filter-Simple-0.92-379.el7.noarch.rpm2016-12-18 14:22 71K 
[   ]rh-perl524-perl-Getopt-Long-2.49.1-2.el7.noarch.rpm2016-12-18 14:22 58K 
[   ]rh-perl524-perl-HTTP-Tiny-0.058-5.el7.noarch.rpm2016-12-18 14:22 51K 
[   ]rh-perl524-perl-IO-1.36-379.el7.x86_64.rpm2016-12-18 14:22 126K 
[   ]rh-perl524-perl-IO-1.36-380.el7.x86_64.rpm2018-05-14 11:02 126K 
[   ]rh-perl524-perl-IO-1.36-381.el7.x86_64.rpm2019-01-29 09:04 127K 
[   ]rh-perl524-perl-IO-Compress-2.069-379.el7.noarch.rpm2016-12-18 14:22 287K 
[   ]rh-perl524-perl-IO-Socket-IP-0.38-1.el7.noarch.rpm2016-12-18 14:22 41K 
[   ]rh-perl524-perl-IO-Tty-1.12-7.el7.x86_64.rpm2016-12-18 14:22 43K 
[   ]rh-perl524-perl-IO-Zlib-1.10-379.el7.noarch.rpm2016-12-18 14:22 65K 
[   ]rh-perl524-perl-IO-Zlib-1.10-380.el7.noarch.rpm2018-05-14 11:02 65K 
[   ]rh-perl524-perl-IO-Zlib-1.10-381.el7.noarch.rpm2019-01-29 09:04 65K 
[   ]rh-perl524-perl-IPC-Cmd-0.96-1.el7.noarch.rpm2017-06-07 00:25 37K 
[   ]rh-perl524-perl-IPC-Run-0.94-6.el7.noarch.rpm2016-12-18 14:22 120K 
[   ]rh-perl524-perl-IPC-SysV-2.07-4.el7.x86_64.rpm2016-12-18 14:22 36K 
[   ]rh-perl524-perl-IPC-System-Simple-1.25-11.el7.noarch.rpm2016-12-18 14:22 37K 
[   ]rh-perl524-perl-JSON-PP-2.27400-6.el7.noarch.rpm2016-12-18 14:22 56K 
[   ]rh-perl524-perl-Linux-Pid-0.04-29.el7.x86_64.rpm2016-12-18 14:22 14K 
[   ]rh-perl524-perl-Locale-Codes-3.39-2.el7.noarch.rpm2016-12-18 14:22 295K 
[   ]rh-perl524-perl-Locale-Maketext-1.28-1.el7.noarch.rpm2016-12-18 14:22 93K 
[   ]rh-perl524-perl-Locale-Maketext-Simple-0.21-379.el7.noarch.rpm2016-12-18 14:22 63K 
[   ]rh-perl524-perl-Locale-Maketext-Simple-0.21-380.el7.noarch.rpm2018-05-14 11:02 64K 
[   ]rh-perl524-perl-Locale-Maketext-Simple-0.21-381.el7.noarch.rpm2019-01-29 09:04 64K 
[   ]rh-perl524-perl-MIME-Base64-3.15-379.el7.x86_64.rpm2016-12-18 14:22 73K 
[   ]rh-perl524-perl-MRO-Compat-0.12-12.el7.noarch.rpm2016-12-18 14:22 19K 
[   ]rh-perl524-perl-Math-BigInt-1.9997.26-2.el7.noarch.rpm2016-12-18 14:22 175K 
[   ]rh-perl524-perl-Math-BigInt-FastCalc-0.40-379.el7.x86_64.rpm2016-12-18 14:22 67K 
[   ]rh-perl524-perl-Math-BigInt-FastCalc-0.40-380.el7.x86_64.rpm2018-05-14 11:02 67K 
[   ]rh-perl524-perl-Math-BigInt-FastCalc-0.40-381.el7.x86_64.rpm2019-01-29 09:04 67K 
[   ]rh-perl524-perl-Math-BigRat-0.2608.02-379.el7.noarch.rpm2016-12-18 14:22 76K 
[   ]rh-perl524-perl-Math-BigRat-0.2608.02-380.el7.noarch.rpm2018-05-14 11:02 76K 
[   ]rh-perl524-perl-Math-BigRat-0.2608.02-381.el7.noarch.rpm2019-01-29 09:04 77K 
[   ]rh-perl524-perl-Math-Complex-1.59-379.el7.noarch.rpm2016-12-18 14:22 93K 
[   ]rh-perl524-perl-Math-Complex-1.59-380.el7.noarch.rpm2018-05-14 11:02 93K 
[   ]rh-perl524-perl-Math-Complex-1.59-381.el7.noarch.rpm2019-01-29 09:04 93K 
[   ]rh-perl524-perl-Memoize-1.03-379.el7.noarch.rpm2016-12-18 14:22 102K 
[   ]rh-perl524-perl-Memoize-1.03-380.el7.noarch.rpm2018-05-14 11:02 102K 
[   ]rh-perl524-perl-Memoize-1.03-381.el7.noarch.rpm2019-01-29 09:04 103K 
[   ]rh-perl524-perl-Module-Build-0.42.18-5.el7.noarch.rpm2016-12-18 14:22 268K 
[   ]rh-perl524-perl-Module-CPANfile-1.1002-3.el7.noarch.rpm2016-12-18 14:22 37K 
[   ]rh-perl524-perl-Module-CoreList-5.20160720-3.el7.noarch.rpm2016-12-18 14:22 72K 
[   ]rh-perl524-perl-Module-CoreList-tools-5.20160720-3.el7.noarch.rpm2016-12-18 14:22 14K 
[   ]rh-perl524-perl-Module-Implementation-0.09-9.el7.noarch.rpm2016-12-18 14:22 18K 
[   ]rh-perl524-perl-Module-Load-0.32-379.el7.noarch.rpm2016-12-18 14:22 62K 
[   ]rh-perl524-perl-Module-Load-Conditional-0.68-1.el7.noarch.rpm2016-12-18 14:22 19K 
[   ]rh-perl524-perl-Module-Loaded-0.08-379.el7.noarch.rpm2016-12-18 14:22 59K 
[   ]rh-perl524-perl-Module-Loaded-0.08-380.el7.noarch.rpm2018-05-14 11:02 59K 
[   ]rh-perl524-perl-Module-Loaded-0.08-381.el7.noarch.rpm2019-01-29 09:04 60K 
[   ]rh-perl524-perl-Module-Metadata-1.000031-379.el7.noarch.rpm2016-12-18 14:22 72K 
[   ]rh-perl524-perl-Module-Runtime-0.014-9.el7.noarch.rpm2016-12-18 14:22 20K 
[   ]rh-perl524-perl-Net-Ping-2.43-379.el7.noarch.rpm2016-12-18 14:22 80K 
[   ]rh-perl524-perl-Net-Ping-2.43-380.el7.noarch.rpm2018-05-14 11:02 80K 
[   ]rh-perl524-perl-Net-Ping-2.43-381.el7.noarch.rpm2019-01-29 09:04 80K 
[   ]rh-perl524-perl-Package-Generator-1.106-8.el7.noarch.rpm2016-12-18 14:22 22K 
[   ]rh-perl524-perl-Params-Check-0.38-379.el7.noarch.rpm2016-12-18 14:22 67K 
[   ]rh-perl524-perl-Params-Classify-0.013-17.el7.x86_64.rpm2016-12-18 14:22 28K 
[   ]rh-perl524-perl-Params-Util-1.07-17.el7.x86_64.rpm2016-12-18 14:22 38K 
[   ]rh-perl524-perl-Params-Validate-1.24-4.el7.x86_64.rpm2016-12-18 14:22 71K 
[   ]rh-perl524-perl-Parse-CPAN-Meta-1.4422-2.el7.noarch.rpm2016-12-18 14:22 29K 
[   ]rh-perl524-perl-Parse-PMFile-0.40-3.el7.noarch.rpm2016-12-18 14:22 19K 
[   ]rh-perl524-perl-PathTools-3.63-379.el7.x86_64.rpm2016-12-18 14:22 126K 
[   ]rh-perl524-perl-Perl-OSType-1.010-2.el7.noarch.rpm2016-12-18 14:22 23K 
[   ]rh-perl524-perl-PerlIO-via-QuotedPrint-0.08-379.el7.noarch.rpm2016-12-18 14:22 59K 
[   ]rh-perl524-perl-Pod-Checker-1.73-2.el7.noarch.rpm2016-12-18 14:22 28K 
[   ]rh-perl524-perl-Pod-Escapes-1.07-379.el7.noarch.rpm2016-12-18 14:22 65K 
[   ]rh-perl524-perl-Pod-Html-1.22-379.el7.noarch.rpm2016-12-18 14:22 72K 
[   ]rh-perl524-perl-Pod-Html-1.22-380.el7.noarch.rpm2018-05-14 11:02 73K 
[   ]rh-perl524-perl-Pod-Html-1.22-381.el7.noarch.rpm2019-01-29 09:04 73K 
[   ]rh-perl524-perl-Pod-Parser-1.63-379.el7.noarch.rpm2016-12-18 14:22 140K 
[   ]rh-perl524-perl-Pod-Perldoc-3.26-1.el7.noarch.rpm2016-12-18 14:22 82K 
[   ]rh-perl524-perl-Pod-Simple-3.32-379.el7.noarch.rpm2016-12-18 14:22 260K 
[   ]rh-perl524-perl-Pod-Usage-1.69-2.el7.noarch.rpm2016-12-18 14:22 29K 
[   ]rh-perl524-perl-Scalar-List-Utils-1.45-3.el7.x86_64.rpm2016-12-18 14:22 61K 
[   ]rh-perl524-perl-SelfLoader-1.23-379.el7.noarch.rpm2016-12-18 14:22 68K 
[   ]rh-perl524-perl-SelfLoader-1.23-380.el7.noarch.rpm2018-05-14 11:02 68K 
[   ]rh-perl524-perl-SelfLoader-1.23-381.el7.noarch.rpm2019-01-29 09:04 68K 
[   ]rh-perl524-perl-Socket-2.024-1.el7.x86_64.rpm2016-12-18 14:22 52K 
[   ]rh-perl524-perl-Software-License-0.103012-4.el7.noarch.rpm2016-12-18 14:22 125K 
[   ]rh-perl524-perl-Storable-2.56-379.el7.x86_64.rpm2016-12-18 14:22 117K 
[   ]rh-perl524-perl-String-ShellQuote-1.04-20.el7.noarch.rpm2016-12-18 14:22 18K 
[   ]rh-perl524-perl-Sub-Exporter-0.987-10.el7.noarch.rpm2016-12-18 14:22 68K 
[   ]rh-perl524-perl-Sub-Install-0.928-10.el7.noarch.rpm2016-12-18 14:22 22K 
[   ]rh-perl524-perl-Sys-Syslog-0.34-5.el7.x86_64.rpm2016-12-18 14:22 44K 
[   ]rh-perl524-perl-Term-ANSIColor-4.05-3.el7.noarch.rpm2016-12-18 14:22 41K 
[   ]rh-perl524-perl-Term-Cap-1.17-379.el7.noarch.rpm2016-12-18 14:22 66K 
[   ]rh-perl524-perl-Test-1.28-379.el7.noarch.rpm2016-12-18 14:22 74K 
[   ]rh-perl524-perl-Test-1.28-380.el7.noarch.rpm2018-05-14 11:02 75K 
[   ]rh-perl524-perl-Test-1.28-381.el7.noarch.rpm2019-01-29 09:04 75K 
[   ]rh-perl524-perl-Test-Deep-1.120-4.el7.noarch.rpm2016-12-18 14:22 60K 
[   ]rh-perl524-perl-Test-FailWarnings-0.008-9.el7.noarch.rpm2016-12-18 14:22 17K 
[   ]rh-perl524-perl-Test-Fatal-0.014-6.el7.noarch.rpm2016-12-18 14:22 23K 
[   ]rh-perl524-perl-Test-Harness-3.36-379.el7.noarch.rpm2016-12-18 14:22 316K 
[   ]rh-perl524-perl-Test-NoWarnings-1.04-11.el7.noarch.rpm2016-12-18 14:22 26K 
[   ]rh-perl524-perl-Test-Requires-0.10-5.el7.noarch.rpm2016-12-18 14:22 21K 
[   ]rh-perl524-perl-Test-Simple-1.302040-2.el7.noarch.rpm2016-12-18 14:22 400K 
[   ]rh-perl524-perl-Test-Warnings-0.026-4.el7.noarch.rpm2016-12-18 14:22 32K 
[   ]rh-perl524-perl-Text-Balanced-2.03-379.el7.noarch.rpm2016-12-18 14:22 89K 
[   ]rh-perl524-perl-Text-Diff-1.44-3.el7.noarch.rpm2016-12-18 14:22 40K 
[   ]rh-perl524-perl-Text-Glob-0.09-17.el7.noarch.rpm2016-12-18 14:22 12K 
[   ]rh-perl524-perl-Text-ParseWords-3.30-379.el7.noarch.rpm2016-12-18 14:22 62K 
[   ]rh-perl524-perl-Text-Tabs+Wrap-2013.0523-379.el7.noarch.rpm2016-12-18 14:22 68K 
[   ]rh-perl524-perl-Text-Template-1.46-6.el7.noarch.rpm2016-12-18 14:22 63K 
[   ]rh-perl524-perl-Thread-Queue-3.11-2.el7.noarch.rpm2016-12-18 14:22 18K 
[   ]rh-perl524-perl-Tie-IxHash-1.23-8.el7.noarch.rpm2016-12-18 14:23 17K 
[   ]rh-perl524-perl-Time-HiRes-1.9739-2.el7.x86_64.rpm2016-12-18 14:23 50K 
[   ]rh-perl524-perl-Time-Local-1.2300-379.el7.noarch.rpm2016-12-18 14:23 65K 
[   ]rh-perl524-perl-Time-Piece-1.31-379.el7.x86_64.rpm2016-12-18 14:23 82K 
[   ]rh-perl524-perl-Time-Piece-1.31-380.el7.x86_64.rpm2018-05-14 11:02 82K 
[   ]rh-perl524-perl-Time-Piece-1.31-381.el7.x86_64.rpm2019-01-29 09:04 83K 
[   ]rh-perl524-perl-Try-Tiny-0.24-4.el7.noarch.rpm2016-12-18 14:23 37K 
[   ]rh-perl524-perl-URI-1.71-6.el7.noarch.rpm2016-12-18 14:23 113K 
[   ]rh-perl524-perl-Unicode-Collate-1.14-379.el7.x86_64.rpm2016-12-18 14:23 696K 
[   ]rh-perl524-perl-Unicode-Normalize-1.25-379.el7.x86_64.rpm2016-12-18 14:23 114K 
[   ]rh-perl524-perl-YAML-1.18-2.el7.noarch.rpm2016-12-18 14:23 85K 
[   ]rh-perl524-perl-autodie-2.29-379.el7.noarch.rpm2016-12-18 14:21 128K 
[   ]rh-perl524-perl-bignum-0.42-379.el7.noarch.rpm2016-12-18 14:21 86K 
[   ]rh-perl524-perl-bignum-0.42-380.el7.noarch.rpm2018-05-14 11:02 86K 
[   ]rh-perl524-perl-bignum-0.42-381.el7.noarch.rpm2019-01-29 09:04 87K 
[   ]rh-perl524-perl-constant-1.33-379.el7.noarch.rpm2016-12-18 14:21 67K 
[   ]rh-perl524-perl-core-5.24.0-379.el7.x86_64.rpm2016-12-18 14:21 57K 
[   ]rh-perl524-perl-core-5.24.0-380.el7.x86_64.rpm2018-05-14 11:02 57K 
[   ]rh-perl524-perl-core-5.24.0-381.el7.x86_64.rpm2019-01-29 09:04 58K 
[   ]rh-perl524-perl-devel-5.24.0-379.el7.x86_64.rpm2016-12-18 14:22 567K 
[   ]rh-perl524-perl-devel-5.24.0-380.el7.x86_64.rpm2018-05-14 11:02 568K 
[   ]rh-perl524-perl-devel-5.24.0-381.el7.x86_64.rpm2019-01-29 09:04 569K 
[   ]rh-perl524-perl-encoding-2.18-1.el7.x86_64.rpm2016-12-18 14:22 60K 
[   ]rh-perl524-perl-experimental-0.016-379.el7.noarch.rpm2016-12-18 14:22 60K 
[   ]rh-perl524-perl-generators-1.10-3.el7.noarch.rpm2016-12-18 14:22 12K 
[   ]rh-perl524-perl-inc-latest-0.500-6.el7.noarch.rpm2016-12-18 14:22 20K 
[   ]rh-perl524-perl-libnet-3.10-1.el7.noarch.rpm2016-12-18 14:22 123K 
[   ]rh-perl524-perl-libnetcfg-5.24.0-379.el7.noarch.rpm2016-12-18 14:22 62K 
[   ]rh-perl524-perl-libnetcfg-5.24.0-380.el7.noarch.rpm2018-05-14 11:02 62K 
[   ]rh-perl524-perl-libnetcfg-5.24.0-381.el7.noarch.rpm2019-01-29 09:04 63K 
[   ]rh-perl524-perl-libs-5.24.0-379.el7.x86_64.rpm2016-12-18 14:22 1.5M 
[   ]rh-perl524-perl-libs-5.24.0-380.el7.x86_64.rpm2018-05-14 11:02 1.5M 
[   ]rh-perl524-perl-libs-5.24.0-381.el7.x86_64.rpm2019-01-29 09:04 1.5M 
[   ]rh-perl524-perl-local-lib-2.000019-3.el7.noarch.rpm2016-12-18 14:22 69K 
[   ]rh-perl524-perl-macros-5.24.0-379.el7.x86_64.rpm2016-12-18 14:22 57K 
[   ]rh-perl524-perl-macros-5.24.0-380.el7.x86_64.rpm2018-05-14 11:02 57K 
[   ]rh-perl524-perl-macros-5.24.0-381.el7.x86_64.rpm2019-01-29 09:04 57K 
[   ]rh-perl524-perl-open-1.10-379.el7.noarch.rpm2016-12-18 14:22 62K 
[   ]rh-perl524-perl-open-1.10-380.el7.noarch.rpm2018-05-14 11:02 62K 
[   ]rh-perl524-perl-open-1.10-381.el7.noarch.rpm2019-01-29 09:04 62K 
[   ]rh-perl524-perl-parent-0.234-379.el7.noarch.rpm2016-12-18 14:22 59K 
[   ]rh-perl524-perl-perlfaq-5.021011-3.el7.noarch.rpm2016-12-18 14:22 381K 
[   ]rh-perl524-perl-podlators-4.07-379.el7.noarch.rpm2016-12-18 14:22 145K 
[   ]rh-perl524-perl-tests-5.24.0-379.el7.x86_64.rpm2016-12-18 14:22 1.2M 
[   ]rh-perl524-perl-tests-5.24.0-380.el7.x86_64.rpm2018-05-14 11:02 1.2M 
[   ]rh-perl524-perl-tests-5.24.0-381.el7.x86_64.rpm2019-01-29 09:04 1.2M 
[   ]rh-perl524-perl-threads-2.09-2.el7.x86_64.rpm2016-12-18 14:23 54K 
[   ]rh-perl524-perl-threads-shared-1.52-4.el7.x86_64.rpm2016-12-18 14:23 41K 
[   ]rh-perl524-perl-utils-5.24.0-379.el7.noarch.rpm2016-12-18 14:23 130K 
[   ]rh-perl524-perl-utils-5.24.0-380.el7.noarch.rpm2018-05-14 11:02 130K 
[   ]rh-perl524-perl-utils-5.24.0-381.el7.noarch.rpm2019-01-29 09:04 130K 
[   ]rh-perl524-perl-version-0.99.16-379.el7.noarch.rpm2016-12-18 14:23 85K 
[   ]rh-perl524-perl-version-0.99.17-2.el7.x86_64.rpm2016-12-18 14:23 91K 
[   ]rh-perl524-runtime-2.3-2.el7.x86_64.rpm2016-12-19 22:53 1.1M 
[   ]rh-perl524-scldevel-2.3-2.el7.x86_64.rpm2016-12-19 22:53 5.9K